ALOS (DAICHI)

Last updated on Fri Jul 11 2025 00:02:13 GMT+0000 (Coordinated Universal Time)

1 28931U 06002A 25191.60980665 .00000911 00000+0 16445-3 0 9992 2 28931 98.0853 144.5144 0001493 54.3394 305.7950 14.68787877 37930
UTC large
Height (km)
Speed (km/s)
/
Latitude / Longitude
Inclination (degrees)
Orbital Period (minutes)
Azimuth
Elevation
Range (km)
Doppler Factor

Next 0 passes for location: London (51.5072 / 0.1276)

Sorry there are no passes over London.